[[[{"header":{"parameterUnit":"kt","parameterCategory":2,"dx":1,"dy":1,"la1":30.253999710083008,"la2":30.299108505249023,"lo1":-89.0895004272461,"lo2":-89.04439544677734,"nx":28,"ny":28,"refTime":"2022-09-29T21:00:00:Z","depth":0,"parameterNumber":1,"parameterNumberName":"U-component_of_WINDS"},"data":[-1.8962,-1.9181,-1.9195,-1.9452,-1.9508,-1.9689,-1.9758,-1.9849,-1.9926,-2.0143,-2.0271,-2.0309,-2.0394,-2.0553,-2.0694,-2.0709,-2.0772,-2.0838,-2.0846,-2.053,-2.0488,-2.0448,-2.0399,-2.0848,-2.0849,-2.1174,-2.1177,-2.118,-1.873,-1.8787,-1.8926,-1.9072,-1.9192,-1.9136,-1.9247,-1.9353,-1.9516,-1.9611,-1.9738,-1.9931,-2.0086,-2.015,-2.0304,-2.041,-2.0396,-2.0451,-2.0449,-2.0465,-2.0125,-2.0073,-2.046,-2.046,-2.046,-2.046,-2.046,-2.0459,-1.8312,-1.8442,-1.8538,-1.869,-1.8766,-1.8864,-1.8992,-1.9035,-1.9173,-1.9333,-1.9323,-1.9509,-1.9609,-1.9802,-1.987,-2.0018,-1.9961,-2.0028,-2.0047,-2.0067,-2.0088,-1.9629,-2.0043,-2.0042,-2.0041,-2.004,-2.0039,0,-1.8014,-1.8018,-1.8151,-1.8291,-1.8402,-1.8512,-1.8615,-1.8694,-1.8708,-1.8822,-1.8988,-1.9088,-1.9283,-1.9445,-1.9592,-1.9651,-1.9613,-1.9607,-1.9656,-1.967,-1.9662,-1.9678,-1.9132,-1.9598,-1.9594,-1.9592,-1.959,-1.9588,-1.7603,-1.775,-1.7857,-1.795,-1.801,-1.8159,-1.8251,-1.8252,-1.8351,-1.848,-1.8596,-1.8754,-1.8883,-1.9149,-1.9204,-1.9352,-1.9337,-1.9514,-1.936,-1.9363,-1.9351,-1.9347,-1.9365,-1.9549,-1.9554,-1.9558,-1.9561,0,-1.7372,-1.7394,-1.7628,-1.7719,-1.7747,-1.7903,-1.7983,-1.8113,-1.8141,-1.8325,-1.8368,-1.8416,-1.8581,-1.8605,-1.8799,-1.8808,-1.9073,-1.9049,-1.9039,-1.9039,-1.9207,-1.9195,-1.9733,-1.9806,-1.9329,-1.9334,-1.9338,0,-1.7035,-1.7228,-1.7252,-1.7386,-1.7601,-1.7598,-1.7812,-1.7858,-1.7943,-1.8088,-1.8043,-1.8181,-1.819,-1.8332,-1.8345,-1.8565,-1.8598,-1.8622,-1.8626,-1.8633,-1.8631,-1.8695,-1.8678,-1.8615,-1.8612,-1.861,-1.8608,0,-1.6678,-1.6914,-1.7131,-1.719,-1.7309,-1.7411,-1.7466,-1.7561,-1.7653,-1.7774,-1.7835,-1.7977,-1.8058,-1.8169,-1.8187,-1.8082,-1.8452,-1.8312,-1.8478,-1.8479,-1.8568,-1.8564,-1.9024,-1.8604,-1.8604,-1.8603,-1.8602,0,-1.6413,-1.6533,-1.6841,-1.694,-1.7003,-1.7145,-1.7286,-1.7412,-1.7516,-1.7533,-1.763,-1.7607,-1.7794,-1.7654,-1.7916,-1.7775,-1.7858,-1.7895,-1.7907,-1.7936,-1.7781,-1.8049,-1.8475,-1.8526,-1.7948,-1.7943,-1.7938,0,-1.6003,-1.6319,-1.6318,-1.6612,-1.6762,-1.6704,-1.6862,-1.6955,-1.699,-1.7125,-1.7164,-1.7319,-1.7219,-1.7272,-1.7396,-1.7447,-1.7629,-1.7422,-1.7628,-1.7636,-1.7611,-1.8001,-1.8064,-1.8376,-1.7868,-1.7875,-1.7881,0,-1.5689,-1.583,-1.5883,-1.5951,-1.6071,-1.6196,-1.6376,-1.6527,-1.6618,-1.6724,-1.6881,-1.7093,-1.703,-1.7117,-1.7114,-1.7243,-1.7506,-1.7158,-1.7161,-1.7228,-1.7832,-1.7891,-1.7944,-1.7475,-1.7484,-1.7491,-1.7825,0,-1.5299,-1.5459,-1.5597,-1.5747,-1.5846,-1.6029,-1.6055,-1.6156,-1.6142,-1.6177,-1.6402,-1.6487,-1.6645,-1.6706,-1.6695,-1.698,-1.6939,-1.6869,-1.6743,-1.6995,-1.7107,-1.7152,-1.6574,-1.657,-1.6567,-1.6565,0,0,-1.4907,-1.5136,-1.513,-1.5304,-1.5389,-1.5328,-1.5523,-1.5597,-1.5753,-1.5815,-1.5741,-1.6058,-1.6131,-1.6405,-1.6484,-1.6545,-1.6602,-1.6513,-1.6872,-1.6907,-1.6938,-1.7057,-1.7103,-1.6559,-1.6558,-1.6557,-1.6556,0,-1.4771,-1.4838,-1.5028,-1.5105,-1.5219,-1.5245,-1.529,-1.5394,-1.5426,-1.5644,-1.5596,-1.5734,-1.5986,-1.6073,-1.615,-1.6477,-1.6438,-1.6521,-1.6692,-1.6841,-1.6879,-1.6913,-1.7037,-1.7081,-1.6549,-1.6549,-1.6549,0,-1.4474,-1.4548,-1.4641,-1.4825,-1.49,-1.5056,-1.4926,-1.5095,-1.5212,-1.5142,-1.5362,-1.5413,-1.5529,-1.578,-1.5894,-1.5833,-1.6289,-1.6147,-1.6167,-1.6184,-1.633,-1.6375,-1.6416,-1.5881,-1.5879,-1.5877,0,0,-1.4355,-1.4501,-1.4583,-1.4798,-1.4848,-1.4891,-1.4975,-1.4971,-1.5074,-1.5116,-1.5182,-1.5286,-1.5433,-1.5531,-1.567,-1.5941,-1.597,-1.6064,-1.6095,-1.6121,-1.6151,-1.6304,-1.6349,-1.5867,-1.5867,-1.5867,0,0,-1.43,-1.4402,-1.4369,-1.4622,-1.4719,-1.4818,-1.495,-1.4914,-1.5041,-1.5024,-1.5029,-1.5057,-1.5292,-1.5346,-1.5218,-1.5628,-1.5501,-1.5532,-1.5586,-1.5626,-1.5657,-1.5644,-1.5105,0,0,0,0,0,-1.4176,-1.4388,-1.4358,-1.4404,-1.4639,-1.4833,-1.4864,-1.4871,-1.4781,-1.4886,-1.4936,-1.4885,-1.5278,-1.5166,-1.5214,-1.5359,-1.5749,-1.577,-1.579,-1.5923,-1.5965,-1.6,0,0,0,0,0,0,-1.4194,-1.425,-1.4352,-1.4459,-1.4512,-1.4825,-1.4676,-1.4684,-1.477,-1.4757,-1.4877,-1.4889,-1.4901,-1.5142,-1.5185,-1.5323,-1.509,-1.5757,-1.5775,-1.5791,-1.5937,-1.5971,-1.6001,0,0,0,0,0,-1.4209,-1.4254,-1.4629,-1.4456,-1.4502,-1.4562,-1.4668,-1.4673,-1.4741,-1.4819,-1.4829,-1.4738,-1.4905,-1.4941,-1.5168,-1.5303,-1.5061,-1.5076,-1.5769,-1.5783,-1.5795,-1.5954,0,0,0,0,0,0,-1.4219,-1.4262,-1.4638,-1.4653,-1.4376,-1.4544,-1.4571,-1.4664,-1.4797,-1.4809,-1.4679,-1.4668,-1.491,-1.4937,-1.4966,-1.5296,-1.5036,-1.5053,-1.5063,-1.5779,-1.579,-1.58,0,0,0,0,0,0,-1.4237,-1.4274,-1.4646,-1.4545,-1.4548,-1.4529,-1.4552,-1.4745,-1.48,-1.465,-1.4644,-1.4673,-1.4868,-1.4936,-1.4958,-1.5259,-1.5018,-1.5033,-1.5044,-1.5051,-1.5788,-1.5797,0,0,0,0,0,0,-1.4253,-1.4285,-1.4541,-1.4543,-1.4545,-1.4708,-1.4699,-1.4942,-1.4709,-1.4645,-1.4689,-1.4679,-1.4868,-1.489,-1.4952,-1.5245,-1.5255,-1.5018,-1.5029,-1.5036,-1.5041,0,0,0,0,0,0,0,-1.4266,-1.4051,-1.4552,-1.4542,-1.4544,-1.4786,-1.479,-1.4794,-1.4707,-1.4699,-1.4691,-1.4683,-1.4929,-1.4946,-1.4963,-1.5233,0,0,-1.5017,-1.5024,0,0,0,0,0,0,0,0,-1.4037,-1.4047,-1.4553,-1.4556,-1.4559,-1.4787,-1.479,-1.4793,-1.4705,-1.4699,-1.4692,-1.4686,-1.4934,-1.4948,-1.4962,0,0,0,0,0,0,0,0,0,0,0,0,0,0,0,-1.4553,-1.4556,0,-1.4787,-1.479,-1.4793,-1.4705,-1.4699,-1.4694,-1.4689,-1.4938,-1.4949,-1.496,0,0,0,0,0,0,0,0,0,0,0,0,0,0,0,0,0,0,0,0,0,0,0,0,0,0,0,0,0,0,0,0,0,0,0,0,0,0,0,0,0,0,0,0,0,0,0,0,0,0,0,0,0,0,0,0,0,0,0,0,0,0,0,0,0,0,0,0,0]}],[{"header":{"parameterUnit":"kt","parameterCategory":2,"dx":1,"dy":1,"la1":30.253999710083008,"la2":30.299108505249023,"lo1":-89.0895004272461,"lo2":-89.04439544677734,"nx":28,"ny":28,"refTime":"2022-09-29T21:00:00:Z","depth":0,"parameterNumber":2,"parameterNumberName":"V-component_of_WINDS"},"data":[-12.2049,-12.2293,-12.2299,-12.2577,-12.2627,-12.2816,-12.2884,-12.2972,-12.3041,-12.3262,-12.3389,-12.3414,-12.3479,-12.3627,-12.376,-12.3767,-12.3822,-12.3906,-12.3899,-12.3527,-12.3476,-12.3427,-12.3371,-12.3919,-12.3919,-12.4282,-12.4286,-12.4288,-12.1774,-12.1829,-12.1979,-12.2126,-12.2253,-12.2175,-12.2283,-12.2393,-12.2562,-12.2649,-12.2775,-12.2968,-12.3118,-12.3156,-12.3299,-12.3407,-12.3376,-12.3446,-12.3437,-12.3448,-12.3051,-12.2992,-12.3468,-12.3468,-12.3468,-12.3468,-12.3468,-12.3468,-12.1274,-12.1421,-12.1514,-12.1676,-12.175,-12.1848,-12.1986,-12.2015,-12.2158,-12.2313,-12.2287,-12.2476,-12.256,-12.2733,-12.2789,-12.2933,-12.2856,-12.293,-12.2949,-12.2968,-12.2989,-12.2462,-12.2957,-12.2956,-12.2955,-12.2954,-12.2953,0,-12.0909,-12.0904,-12.1048,-12.1194,-12.1311,-12.1423,-12.1525,-12.161,-12.1593,-12.1711,-12.1881,-12.1978,-12.2168,-12.2324,-12.2458,-12.2501,-12.2427,-12.242,-12.2471,-12.2487,-12.2484,-12.2486,-12.1839,-12.2405,-12.24,-12.2397,-12.2394,-12.2392,-12.0404,-12.0575,-12.0674,-12.0774,-12.0831,-12.0993,-12.1088,-12.1061,-12.1163,-12.1281,-12.1409,-12.1566,-12.1691,-12.1958,-12.1983,-12.2123,-12.2088,-12.2304,-12.2108,-12.2117,-12.2089,-12.2079,-12.2095,-12.2342,-12.2348,-12.2354,-12.2358,0,-12.0119,-12.0126,-12.0391,-12.047,-12.0495,-12.0673,-12.0738,-12.0881,-12.0892,-12.1089,-12.1132,-12.1149,-12.1314,-12.1305,-12.1489,-12.1479,-12.1764,-12.1727,-12.1735,-12.1727,-12.1918,-12.19,-12.2544,-12.2625,-12.2058,-12.2064,-12.2068,0,-11.9689,-11.9914,-11.991,-12.0064,-12.0311,-12.0278,-12.0522,-12.0556,-12.063,-12.0785,-12.0702,-12.0848,-12.0813,-12.0957,-12.0942,-12.1174,-12.1208,-12.1213,-12.1206,-12.1221,-12.122,-12.1271,-12.1244,-12.1186,-12.1183,-12.118,-12.1177,0,-11.9241,-11.9502,-11.9752,-11.9812,-11.9918,-12.0035,-12.0083,-12.0166,-12.0259,-12.0378,-12.0437,-12.0577,-12.0653,-12.076,-12.074,-12.0607,-12.1023,-12.0837,-12.1028,-12.1029,-12.112,-12.1114,-12.1688,-12.1173,-12.1172,-12.1171,-12.117,0,-11.8894,-11.9022,-11.9384,-11.9469,-11.9538,-11.9702,-11.9839,-11.9978,-12.007,-12.0072,-12.0165,-12.0107,-12.0311,-12.0126,-12.0405,-12.0238,-12.0316,-12.034,-12.0353,-12.037,-12.0163,-12.0486,-12.1035,-12.1091,-12.0386,-12.0379,-12.0373,0,-11.8379,-11.8746,-11.8722,-11.9065,-11.9233,-11.913,-11.931,-11.9396,-11.9414,-11.9555,-11.9573,-11.9734,-11.9595,-11.9643,-11.9783,-11.9806,-12.0023,-11.9776,-11.9974,-11.9981,-11.9952,-12.0458,-12.0541,-12.0916,-12.029,-12.0298,-12.0305,0,-11.798,-11.811,-11.8174,-11.824,-11.8351,-11.8491,-11.8698,-11.8853,-11.8948,-11.9053,-11.9224,-11.945,-11.9353,-11.9435,-11.9402,-11.9548,-11.9875,-11.9424,-11.9425,-11.9504,-12.0247,-12.0325,-12.0389,-11.982,-11.983,-11.9838,-12.0238,0,-11.7452,-11.7637,-11.7809,-11.796,-11.8067,-11.8282,-11.8277,-11.8389,-11.8349,-11.8363,-11.8614,-11.868,-11.8834,-11.8903,-11.8864,-11.9201,-11.9142,-11.9038,-11.8856,-11.9188,-11.9319,-11.9373,-11.8661,-11.8655,-11.8651,-11.8647,0,0,-11.6956,-11.7221,-11.7188,-11.7391,-11.7479,-11.7369,-11.7599,-11.767,-11.7819,-11.788,-11.778,-11.8109,-11.8167,-11.8471,-11.8574,-11.8636,-11.8695,-11.8579,-11.903,-11.9073,-11.9113,-11.9254,-11.931,-11.8639,-11.8637,-11.8636,-11.8634,0,-11.6763,-11.6833,-11.7063,-11.7137,-11.7246,-11.7251,-11.7307,-11.7393,-11.7413,-11.766,-11.7562,-11.7711,-11.7976,-11.8049,-11.8121,-11.8543,-11.8459,-11.859,-11.882,-11.8985,-11.9034,-11.9077,-11.9225,-11.9279,-11.8623,-11.8624,-11.8624,0,-11.6368,-11.6435,-11.6546,-11.6745,-11.6814,-11.6989,-11.6799,-11.6993,-11.7121,-11.6986,-11.7233,-11.7268,-11.7366,-11.7656,-11.7785,-11.7696,-11.8245,-11.807,-11.8099,-11.8112,-11.8272,-11.8331,-11.8383,-11.7693,-11.769,-11.7687,0,0,-11.62,-11.6373,-11.6435,-11.6703,-11.6754,-11.6765,-11.6857,-11.6827,-11.692,-11.6958,-11.7003,-11.7094,-11.7246,-11.7347,-11.749,-11.781,-11.7825,-11.7956,-11.8,-11.8036,-11.8069,-11.8238,-11.8296,-11.7675,-11.7674,-11.7674,0,0,-11.6119,-11.6203,-11.6147,-11.6458,-11.6553,-11.6628,-11.679,-11.6722,-11.6851,-11.6825,-11.6778,-11.6801,-11.7071,-11.7109,-11.6949,-11.7424,-11.7245,-11.7283,-11.739,-11.7445,-11.7488,-11.7473,-11.676,0,0,0,0,0,-11.592,-11.6193,-11.6141,-11.6193,-11.6442,-11.6658,-11.6689,-11.6659,-11.6533,-11.6662,-11.6687,-11.6592,-11.7013,-11.687,-11.692,-11.7098,-11.7519,-11.7547,-11.7573,-11.7785,-11.7843,-11.7892,0,0,0,0,0,0,-11.594,-11.6003,-11.6134,-11.6222,-11.6278,-11.6647,-11.6427,-11.6426,-11.6518,-11.6497,-11.659,-11.6595,-11.6571,-11.6842,-11.6888,-11.7058,-11.6745,-11.753,-11.7553,-11.7574,-11.7805,-11.7852,-11.7893,0,0,0,0,0,-11.5955,-11.6006,-11.6415,-11.6218,-11.6266,-11.6292,-11.6416,-11.6414,-11.6484,-11.6525,-11.6527,-11.6454,-11.6577,-11.6612,-11.6869,-11.7038,-11.6713,-11.673,-11.7545,-11.7564,-11.758,-11.7828,0,0,0,0,0,0,-11.5967,-11.6004,-11.6424,-11.6437,-11.6113,-11.6271,-11.6295,-11.6404,-11.6505,-11.6511,-11.6385,-11.6367,-11.6584,-11.661,-11.6638,-11.7034,-11.6688,-11.6705,-11.6716,-11.7559,-11.7574,-11.7586,0,0,0,0,0,0,-11.5976,-11.6017,-11.643,-11.63,-11.6298,-11.6251,-11.6273,-11.6486,-11.6508,-11.6359,-11.6347,-11.6376,-11.654,-11.6611,-11.6632,-11.6965,-11.6668,-11.6684,-11.6696,-11.6703,-11.7571,-11.7582,0,0,0,0,0,0,-11.5993,-11.6027,-11.6296,-11.6295,-11.6293,-11.6441,-11.6438,-11.6694,-11.6401,-11.6356,-11.6373,-11.6361,-11.6544,-11.6564,-11.6628,-11.6953,-11.6962,-11.6669,-11.668,-11.6688,-11.6693,0,0,0,0,0,0,0,-11.6006,-11.5784,-11.6345,-11.6291,-11.6288,-11.6561,-11.6565,-11.6568,-11.6398,-11.6387,-11.6376,-11.6366,-11.6574,-11.6592,-11.661,-11.6944,0,0,-11.6667,-11.6675,0,0,0,0,0,0,0,0,-11.5769,-11.5781,-11.6345,-11.6348,-11.6351,-11.6562,-11.6565,-11.6568,-11.6396,-11.6387,-11.6379,-11.637,-11.6579,-11.6593,-11.6608,0,0,0,0,0,0,0,0,0,0,0,0,0,0,0,-11.6346,-11.6348,0,-11.6562,-11.6565,-11.6567,-11.6395,-11.6388,-11.638,-11.6374,-11.6583,-11.6595,-11.6607,0,0,0,0,0,0,0,0,0,0,0,0,0,0,0,0,0,0,0,0,0,0,0,0,0,0,0,0,0,0,0,0,0,0,0,0,0,0,0,0,0,0,0,0,0,0,0,0,0,0,0,0,0,0,0,0,0,0,0,0,0,0,0,0,0,0,0,0,0]}]]]